NOAA 16 DEB, 42378

Orbit data source: Space-Track

NOAA 16 DEB, 42378 is space debris in SSO originally from a launch on Thu, 21 Sep 2000 UTC launched from the Air Force Western Test Range (AFWTR). Debris objects in space refer to the collection of defunct objects orbiting the Earth. Examples of debris include non-operational satellites, rocket bodies, and fragments generated from explosions, collisions, or faulty payload assembly.

Loading next visibility...
Identifier
42378, 2000-055RW
Orbit
SSO
Country
Flag of USUS
Related business
Manufacturer
Unknown
Mission
Spacecraft
Bus & Motor
Unknown
Mass
Unknown
Launch date (UTC)
2000-09-21 (26 years ago)
Launch vehicle
Unknown
Launch site
Air Force Western Test Range (AFWTR)
Object type
Payload
Rocket body
Debris
Shape & HBR
Unknown shape, 0.1 m
Radar Cross Section
Medium (>0.1 m² and <1 m²)

Expand to show TLE details & history
Last TLE update: 6 hours ago

TLE from 6 hours ago
0 NOAA 16 DEB
1 42378U 00055RW  26257.88720991  .00005412  00000-0  14653-2 0  9993
2 42378  98.8741  50.8732 0018014 218.0298 141.9623 14.48039636547288
Epoch: 2026-09-14T21:17Z
TLE epoch observation values (Epoch: 2026-09-14T21:17:34.936Z)
Latitude
0.00002°
Longitude
97.61657°
Altitude
745.105 km
Speed
7.477 km/s
True Right ascension
03h 23m 29s
True Declination
0° 00' 00"
Sunlit
Object was in full shadow at epoch
Visualization orbit readout
Latitude
Unknown
Longitude
Unknown
Altitude
Unknown
Speed
Unknown
Apparent Right ascension
Unknown
Apparent Declination
Unknown
Sunlit
N/A
Visualization observer readout
Local Sidereal Time
20:06:17
Azimuth
Unknown
Elevation
Unknown
Doppler factor
Unknown
Orbital elements
Apogee altitude
741.991 km
Perigee altitude
716.385 km
Semi-major axis
7,107.325 km
Eccentricity
0.0018
Inclination
98.8741°
RAAN
50.8732°
Arg. of periapsis
218.0298°
True anomaly
142.08927°
Mean anomaly
141.9623°
Eccentric anomaly
142.02581°
Mean motion
3.6223 °/min
Orbital period
99.38 mins
BSTAR
0.0014653
Loading maneuver chart data...
Computing Atmospheric mass density...
Loading historical data...
Loading historical data...
Loading historical data...
Loading historical data...
Loading historical data...
Loading historical data...
Loading historical data...

Documentation

Showing up to 5 results
|